Coffeyville, KS

2:14 AM CDT on April 25, 2017 (GMT -0500)
Coffeyville Municipal

Weather History for KCFV - December, 2012

Change the Weather History Date:

Sunday, December 30, 2012

  Actual Average Record
Temperature  
Mean Temperature 32 °F -  
Max Temperature 44 °F 43 °F 73 °F (2004)
Min Temperature 19 °F 23 °F 6 °F (2000)
Degree Days  
Heating Degree Days 34    
Moisture  
Dew Point 20 °F    
Average Humidity 61    
Maximum Humidity 82    
Minimum Humidity 38    
Precipitation  
Precipitation 0.00 in - - ()
Sea Level Pressure  
Sea Level Pressure 30.33 in    
Wind  
Wind Speed 8 mph (South)    
Max Wind Speed 20 mph    
Max Gust Speed 25 mph    
Visibility 10 miles    
Events      
Averages and records for this station are not official NWS values.
T = Trace of Precipitation, MM = Missing Value Source: NWS Daily Summary

Daily Weather History Graph

Daily Weather History Graph

Search for Another Location

Airport or City:

Trip Planner

Search our weather history database for the weather conditions in past years. The results will help you decide how hot, cold, wet, or windy it might be!

Date:

Astronomy

Dec. 30, 2012 Rise Set
Actual Time 7:35 AM CST 5:14 PM CST
Civil Twilight 7:06 AM CST 5:43 PM CST
Nautical Twilight 6:34 AM CST 6:16 PM CST
Astronomical Twilight 6:02 AM CST 6:47 PM CST
Moon 7:43 PM CST (12/30) 8:48 AM CST (12/30)
Length of Visible Light 10h 37m
Length of Day
9h 39m
Waning Gibbous, 95% of the Moon is Illuminated
Dec 30
Waning Gibbous
Jan 4
Last Quarter
Jan 11
New
Jan 18
First Quarter
Jan 26
Full

Hourly Weather History & Observations

Time (CST) Temp. Windchill Dew Point Humidity Pressure Visibility Wind Dir Wind Speed Gust Speed Precip Events Conditions
12:52 AM 21.9 °F 15.7 °F 15.1 °F 75% 30.40 in 10.0 mi SSE 4.6 mph - N/A   Clear
1:52 AM 21.9 °F 15.7 °F 16.0 °F 78% 30.39 in 10.0 mi SSE 4.6 mph - N/A   Clear
2:52 AM 23.0 °F 17.0 °F 16.0 °F 74% 30.41 in 10.0 mi SSE 4.6 mph - N/A   Clear
3:52 AM 21.9 °F 15.7 °F 15.1 °F 75% 30.41 in 10.0 mi South 4.6 mph - N/A   Clear
4:52 AM 19.9 °F 13.4 °F 15.1 °F 81% 30.40 in 10.0 mi South 4.6 mph - N/A   Clear
5:52 AM 21.0 °F 14.6 °F 15.1 °F 78% 30.40 in 10.0 mi South 4.6 mph - N/A   Clear
6:52 AM 21.0 °F 13.4 °F 16.0 °F 81% 30.39 in 10.0 mi SSE 5.8 mph - N/A   Clear
7:52 AM 21.9 °F 14.5 °F 17.1 °F 82% 30.39 in 10.0 mi SSE 5.8 mph - N/A   Clear
8:52 AM 25.0 °F 17.1 °F 19.9 °F 81% 30.42 in 10.0 mi South 6.9 mph - N/A   Clear
9:52 AM 30.9 °F 22.8 °F 23.0 °F 72% 30.40 in 10.0 mi South 9.2 mph - N/A   Clear
10:52 AM 37.0 °F 29.3 °F 25.0 °F 62% 30.39 in 10.0 mi South 11.5 mph - N/A   Clear
11:52 AM 42.1 °F 34.5 °F 24.1 °F 49% 30.36 in 10.0 mi SSW 15.0 mph 23.0 mph N/A   Clear
12:52 PM 44.1 °F 36.8 °F 21.0 °F 40% 30.32 in 10.0 mi South 16.1 mph - N/A   Clear
1:52 PM 44.1 °F 35.9 °F 19.9 °F 38% 30.30 in 10.0 mi South 19.6 mph 25.3 mph N/A   Clear
2:52 PM 44.1 °F 35.9 °F 19.9 °F 38% 30.28 in 10.0 mi South 19.6 mph 24.2 mph N/A   Clear
3:52 PM 43.0 °F 37.7 °F 21.0 °F 42% 30.27 in 10.0 mi SSE 9.2 mph 18.4 mph N/A   Clear
4:52 PM 41.0 °F 33.1 °F 21.0 °F 45% 30.27 in 10.0 mi South 15.0 mph - N/A   Clear
5:52 PM 39.9 °F 32.9 °F 21.0 °F 47% 30.26 in 10.0 mi South 11.5 mph - N/A   Clear
6:52 PM 37.9 °F 30.5 °F 23.0 °F 55% 30.25 in 10.0 mi South 11.5 mph - N/A   Clear
7:52 PM 37.9 °F 30.9 °F 23.0 °F 55% 30.23 in 10.0 mi South 10.4 mph - N/A   Clear
8:52 PM 37.9 °F 31.5 °F 21.9 °F 53% 30.22 in 10.0 mi South 9.2 mph - N/A   Clear
9:52 PM 37.0 °F 31.0 °F 21.9 °F 54% 30.23 in 10.0 mi South 8.1 mph - N/A   Clear
10:52 PM 37.9 °F 31.5 °F 21.9 °F 53% 30.23 in 10.0 mi South 9.2 mph - N/A   Clear
11:52 PM 37.0 °F 32.4 °F 21.9 °F 54% 30.23 in 10.0 mi South 5.8 mph - N/A   Clear